Wetbulb
55.82 55.58 55.30 55.37 55.15 54.92 54.72 54.55 54.21 54.34 54.69 54.64 54.41 54.40 53.71 53.13 53.10 53.00 52.86 52.45 52.02 51.90 51.18 51.03 50.21 50.15 47.94 39.57 38.39 46.00 46.73 46.10 45.16 43.85 40.58 38.72 36.31 35.57 31.46 33.68 34.66 32.32 33.49 34.99 36.00 36.08 35.62
55.24 55.20 55.51 55.49 54.92 54.93 54.80 54.66 54.51 54.33 54.35 54.25 54.19 54.10 53.00 52.71 52.76 52.72 52.53 51.80 51.26 50.60 50.53 49.51 49.21 50.83 43.85 34.60 45.02 46.34 45.46 44.19 43.40 41.98 40.01 39.60 36.98 37.65 34.11 33.10 32.14 34.18 34.09 34.24 35.14 34.60 35.04
55.33 55.63 55.77 55.67 55.85 55.24 55.04 54.71 54.41 54.30 54.22 54.30 53.87 52.78 52.58 52.29 52.06 52.02 51.82 50.83 50.20 49.75 48.94 48.57 50.54 48.36 41.45 38.77 46.52 47.38 45.67 43.64 43.24 41.77 38.67 40.66 40.31 36.65 36.15 32.01 36.00 34.44 29.80 32.45 33.23 33.94 33.03
55.04 55.08 55.08 54.92 55.17 55.00 55.19 54.80 54.45 54.28 54.34 54.12 53.09 52.65 52.21 51.99 51.61 51.31 50.98 49.33 48.62 48.15 48.27 48.65 51.28 46.57 38.00 46.61 47.40 44.75 43.33 41.96 43.52 43.26 41.55 41.81 41.35 37.48 34.93 36.18 33.03 29.03 29.18 24.43 31.41 33.29 34.30
54.70 54.55 54.46 54.45 54.60 54.58 54.73 54.51 54.31 54.28 54.05 53.34 52.87 52.28 51.69 51.08 50.75 50.61 49.06 47.92 47.37 48.16 48.19 50.07 46.94 43.32 35.54 44.50 40.17 42.51 42.87 39.29 40.75 41.53 41.95 41.66 39.77 34.64 34.60 28.35 25.42 27.50 20.52 22.88 26.40 32.99 32.07
54.70 54.20 54.09 53.88 54.10 54.07 54.29 54.24 54.14 54.18 53.70 53.20 52.49 51.62 50.90 50.50 49.85 49.41 47.59 46.43 46.44 48.74 47.23 45.52 43.94 37.86 38.84 35.33 39.67 40.66 42.93 41.07 38.00 38.05 37.08 36.30 34.63 30.24 30.07 26.65 17.65 21.03 21.15 23.58 23.51 29.74 30.66
54.41 54.11 53.92 54.05 53.65 53.78 54.02 53.91 54.02 53.62 53.17 53.26 52.40 51.30 50.20 49.21 49.08 46.80 47.11 45.27 40.84 39.18 40.65 35.34 35.14 34.79 36.39 39.91 41.53 38.99 40.64 38.47 38.02 35.67 29.79 33.08 26.31 22.70 26.35 28.35 27.85 25.94 23.49 22.05 26.40 30.07 27.68
53.81 54.22 53.92 53.84 53.50 53.67 53.66 53.55 53.55 53.45 53.22 52.97 52.42 51.53 49.93 48.37 46.60 46.44 45.41 39.40 37.36 38.95 33.96 37.94 36.98 36.94 38.72 39.22 33.38 36.70 39.99 33.18 32.17 27.82 31.53 28.95 23.92 29.45 30.18 28.57 26.07 24.68 22.18 21.77 26.19 29.15 27.62
52.75 53.49 53.78 53.68 53.46 53.33 53.20 53.30 53.15 53.46 53.29 52.99 52.25 51.19 49.24 47.47 46.84 45.04 41.01 38.22 43.05 42.26 35.40 33.64 35.94 35.15 35.45 37.59 32.45 33.03 36.53 33.75 30.24 27.46 27.85 23.90 27.33 30.59 27.64 25.92 23.79 24.10 22.60 22.26 22.21 26.89 28.51
52.62 52.58 52.85 53.33 53.40 53.33 53.65 53.30 53.29 53.25 53.51 53.44 51.89 50.51 48.05 46.45 43.73 42.24 39.13 42.58 44.39 43.31 31.32 29.57 31.90 34.30 36.62 36.38 30.92 37.13 37.69 33.41 29.93 25.87 26.95 26.25 30.28 27.63 26.06 24.53 26.26 21.53 28.03 25.99 24.03 21.96 16.29
52.31 52.33 52.27 52.22 53.04 53.16 53.45 53.49 53.20 53.45 53.63 53.23 51.78 49.53 46.47 44.64 41.67 39.21 39.05 43.76 43.94 40.53 23.63 31.16 31.24 38.73 37.34 31.44 32.02 32.91 38.01 33.60 26.18 26.01 26.58 24.29 26.34 25.32 23.64 25.35 27.31 23.52 28.55 26.30 24.92 22.07 21.43
52.05 51.99 51.91 51.84 52.07 52.65 53.01 53.56 53.57 53.86 53.56 53.08 51.94 48.65 45.98 43.34 43.66 40.49 43.06 43.62 41.03 28.81 22.11 27.36 31.61 30.30 30.20 31.30 30.93 32.49 32.67 35.71 33.93 27.32 28.71 27.36 32.37 29.06 27.24 28.39 28.00 28.26 25.60 24.89 24.97 21.78 14.51
51.73 51.64 51.55 51.55 51.67 52.17 52.46 53.21 53.91 53.90 53.65 53.00 50.91 46.88 44.44 43.69 38.36 42.42 43.64 39.25 30.92 25.41 30.74 26.78 26.02 29.28 28.03 26.63 27.12 28.27 26.91 25.90 21.84 17.00 18.43 25.41 27.14 29.47 29.78 24.01 27.38 24.23 19.37 16.23 14.15 13.85 12.89
51.48 51.33 51.30 51.34 51.09 51.85 52.39 53.19 53.62 53.46 53.49 52.47 49.39 44.56 42.74 44.26 43.37 42.23 40.61 33.98 24.69 24.97 24.80 29.57 28.05 27.77 23.66 25.89 25.69 25.86 25.34 22.81 26.20 23.20 19.13 15.90 15.60 25.24 28.17 23.38 18.50 19.86 20.43 15.90 9.34 12.58 16.29
51.11 50.93 50.71 50.87 50.30 51.17 51.89 52.55 53.41 53.44 52.87 51.98 47.69 46.33 46.22 44.89 42.85 41.49 36.99 28.37 24.53 25.03 26.69 24.85 26.54 23.06 24.47 25.91 24.61 24.47 24.25 21.67 24.20 24.88 16.33 15.46 17.06 27.20 25.53 24.44 22.63 16.75 15.88 18.73 14.80 19.65 16.86
51.01 50.71 50.70 50.80 50.26 50.15 51.06 52.06 52.78 53.23 52.48 50.82 44.23 43.12 43.45 45.38 44.69 41.76 35.43 24.74 25.92 28.53 28.22 27.20 20.73 22.80 18.97 23.03 21.63 22.27 21.60 24.47 23.32 26.51 27.49 21.07 14.09 25.41 27.08 25.58 24.09 18.84 20.74 11.45 18.31 12.40 11.31
51.05 50.93 50.47 50.09 49.91 49.80 50.42 51.75 52.27 52.77 52.17 49.15 44.65 40.37 43.36 45.31 45.80 38.67 28.72 24.94 26.65 30.82 29.51 25.15 23.28 21.59 22.44 21.09 22.22 20.93 20.53 25.07 26.23 24.67 26.58 24.84 19.14 19.35 25.04 18.55 14.05 16.29 12.80 12.71 13.36 13.67 14.41
50.86 50.97 50.82 49.94 49.43 49.22 49.92 51.16 51.92 52.12 50.12 48.83 43.64 38.46 43.66 44.65 37.16 35.78 29.86 26.38 28.94 28.51 30.60 27.69 27.39 25.48 23.16 23.13 20.83 20.45 20.01 23.50 28.17 25.83 20.72 25.23 19.35 14.29 17.65 20.14 20.59 18.87 13.22 12.20 6.34 9.33 11.32
50.84 50.81 50.46 49.99 49.05 48.83 49.14 50.59 51.52 51.85 49.77 45.51 40.35 39.29 44.91 43.40 31.54 31.29 31.81 28.64 28.68 27.37 27.24 25.60 25.10 26.76 26.86 22.26 17.63 21.94 22.08 27.21 27.61 24.65 22.67 24.10 18.53 11.24 15.09 16.87 19.43 14.86 14.69 12.77 12.81 12.57 9.09
50.54 50.51 50.40 49.66 48.56 48.49 48.79 50.21 51.14 51.72 50.86 45.57 41.90 36.35 40.67 39.12 36.41 30.59 27.64 27.87 25.69 30.85 28.14 27.82 26.38 27.38 24.23 21.98 24.66 19.59 21.09 24.61 26.56 26.13 28.07 24.65 18.78 14.32 9.81 12.57 14.83 10.09 11.28 11.31 10.51 9.09 6.24
50.06 50.38 50.12 48.76 48.51 48.39 48.86 49.98 50.83 51.39 49.95 45.93 42.19 36.78 32.81 33.95 33.97 32.66 27.46 27.82 25.32 24.72 28.05 28.46 24.72 24.47 23.00 18.22 20.10 19.93 22.51 23.92 26.56 26.63 23.87 20.60 13.74 17.22 16.81 17.77 12.97 10.86 9.35 8.56 6.31 6.39 4.26
49.29 49.51 49.20 48.50 48.11 48.18 48.82 49.71 50.55 51.16 48.72 45.74 38.94 36.04 32.02 31.39 32.37 31.40 30.41 28.01 25.79 26.63 25.30 24.68 22.39 25.37 25.06 20.63 21.63 18.98 22.39 23.19 21.22 23.61 22.21 20.91 14.47 14.98 12.34 16.60 16.06 13.25 9.41 9.40 7.09 5.35 6.81
49.53 48.94 48.28 48.17 47.85 48.04 48.81 49.71 50.41 50.97 48.24 42.74 39.73 38.63 35.13 34.14 31.55 29.22 31.05 30.02 28.02 29.29 29.31 29.18 27.45 25.13 23.29 25.21 28.47 29.15 28.68 27.62 26.21 22.67 20.31 19.54 15.52 12.79 10.12 13.55 11.79 9.92 5.55 6.61 5.89 5.73 4.69
49.67 48.88 48.25 48.64 48.20 48.70 49.46 50.16 50.55 50.85 50.59 47.87 42.12 39.17 31.60 28.71 30.68 31.10 31.38 29.91 29.59 29.50 27.00 29.61 29.61 25.81 28.65 32.72 31.08 30.07 28.85 24.60 22.59 22.47 23.39 18.75 15.21 15.16 10.13 10.95 2.83 6.51 12.25 9.89 6.96 5.60 7.27
49.67 49.15 48.49 48.62 49.08 49.49 49.85 50.39 50.66 50.85 50.99 46.67 43.20 39.03 32.51 29.63 32.77 31.58 31.38 31.15 30.61 31.03 28.35 27.75 28.80 31.07 32.78 28.23 22.46 19.75 21.14 19.16 19.81 22.11 17.96 18.78 15.72 12.53 8.08 8.42 8.51 8.09 9.19 6.44 4.54 4.70 8.30
49.83 49.57 48.54 48.96 49.44 49.91 50.31 50.46 50.58 50.99 50.97 47.26 45.63 43.69 36.66 31.78 31.54 34.23 30.44 31.50 28.48 27.53 26.83 27.80 31.31 32.74 29.87 24.61 20.86 13.13 13.01 15.57 14.50 16.38 21.20 17.61 15.18 12.49 11.20 4.91 1.79 7.51 8.51 9.85 9.67 2.74 8.29
49.80 49.63 48.93 48.90 49.92 50.17 50.25 50.57 50.65 50.97 50.86 47.23 44.54 43.47 38.13 31.59 35.45 35.02 30.36 30.60 30.25 27.59 25.12 27.19 27.50 26.53 28.30 22.15 17.58 16.01 15.68 18.81 11.82 11.06 12.77 13.14 13.59 10.09 10.90 8.01 8.91 7.08 9.16 10.51 2.04 1.81 8.35
49.31 50.24 49.93 49.36 49.70 50.26 50.57 50.54 50.61 50.81 50.63 48.62 43.51 44.09 39.51 32.00 35.29 35.42 34.64 32.02 29.27 28.67 25.05 27.63 25.26 24.66 23.27 18.25 18.07 18.37 16.53 18.50 14.04 16.11 12.82 11.08 10.31 10.88 9.62 5.61 2.64 9.65 9.97 4.76 5.37 9.58 10.32
49.32 49.89 49.98 49.86 49.62 49.94 50.25 50.51 50.69 50.87 50.73 49.05 40.97 44.40 43.91 37.39 35.16 34.70 36.08 35.55 34.97 34.20 29.99 28.98 26.35 24.94 26.19 21.80 21.48 20.18 16.58 18.49 14.68 9.31 11.33 7.47 9.81 7.99 7.40 6.30 8.06 9.84 7.68 10.72 10.61 9.08 10.42
MSLP
1022.71 1022.36 1022.11 1021.73 1021.37 1021.04 1020.76 1020.37 1019.99 1019.44 1018.84 1018.27 1017.73 1017.36 1016.88 1016.52 1016.12 1015.79 1015.42 1015.15 1014.81 1014.50 1014.34 1014.20 1014.16 1014.30 1014.28 1013.36 1012.78 1013.52 1013.90 1013.87 1013.73 1013.54 1013.30 1012.92 1012.75 1012.47 1011.79 1011.28 1010.98 1010.48 1010.32 1009.99 1009.58 1009.31 1009.01
1023.07 1022.65 1022.34 1021.88 1021.56 1021.23 1020.93 1020.51 1020.03 1019.48 1018.92 1018.32 1017.74 1017.22 1016.80 1016.41 1015.93 1015.59 1015.28 1014.93 1014.60 1014.30 1014.13 1014.10 1014.17 1014.36 1013.88 1013.05 1013.34 1013.52 1013.78 1013.70 1013.38 1013.37 1012.93 1012.71 1012.32 1012.25 1011.58 1011.17 1010.81 1010.40 1009.96 1009.36 1009.07 1008.84 1008.75
1023.31 1022.85 1022.39 1022.00 1021.67 1021.40 1021.09 1020.60 1020.03 1019.53 1018.93 1018.33 1017.68 1017.10 1016.69 1016.24 1015.80 1015.49 1015.11 1014.72 1014.43 1014.25 1014.15 1014.10 1014.19 1014.01 1013.77 1013.45 1013.48 1013.55 1013.57 1013.25 1013.06 1012.91 1012.68 1012.48 1012.38 1012.38 1011.84 1011.22 1010.42 1009.90 1009.51 1009.00 1008.58 1008.32 1007.98
1023.60 1023.13 1022.73 1022.36 1021.95 1021.55 1021.09 1020.55 1020.07 1019.50 1018.94 1018.34 1017.64 1017.05 1016.59 1016.21 1015.83 1015.40 1015.02 1014.67 1014.36 1014.28 1014.29 1014.30 1014.38 1013.95 1013.18 1013.85 1013.57 1013.53 1013.20 1012.89 1012.70 1012.49 1012.35 1012.21 1012.22 1012.16 1012.04 1011.55 1010.70 1010.18 1009.71 1008.72 1007.94 1007.77 1007.33
1023.88 1023.39 1022.98 1022.60 1022.16 1021.69 1021.15 1020.66 1020.17 1019.54 1018.99 1018.29 1017.70 1017.13 1016.66 1016.23 1015.75 1015.31 1015.07 1014.76 1014.42 1014.15 1014.29 1014.39 1014.29 1013.93 1013.22 1013.77 1013.41 1013.70 1013.37 1012.98 1012.79 1012.29 1011.81 1011.70 1011.89 1011.92 1011.78 1011.40 1010.61 1009.73 1008.99 1008.46 1007.45 1007.31 1006.81
1024.11 1023.67 1023.21 1022.83 1022.38 1021.87 1021.33 1020.81 1020.27 1019.60 1019.01 1018.35 1017.79 1017.22 1016.73 1016.16 1015.74 1015.34 1015.03 1014.81 1014.66 1014.29 1014.30 1014.04 1013.96 1014.28 1013.56 1013.73 1013.72 1013.56 1013.35 1013.27 1012.42 1011.90 1011.52 1011.27 1011.55 1011.72 1011.54 1011.29 1009.88 1008.94 1008.67 1008.16 1006.94 1006.45 1005.71
1024.44 1023.97 1023.44 1023.04 1022.55 1022.10 1021.60 1021.03 1020.36 1019.57 1018.95 1018.34 1017.78 1017.25 1016.68 1016.21 1015.90 1015.53 1014.73 1014.68 1014.69 1014.43 1014.26 1014.56 1014.54 1014.45 1014.24 1014.24 1013.93 1013.25 1013.25 1012.44 1011.68 1011.54 1010.95 1011.06 1011.56 1011.19 1010.83 1010.55 1010.12 1009.51 1008.82 1007.90 1006.88 1006.06 1005.55
1024.68 1024.17 1023.61 1023.18 1022.72 1022.22 1021.65 1021.07 1020.35 1019.61 1019.00 1018.32 1017.74 1017.19 1016.68 1016.29 1016.11 1015.59 1014.90 1015.00 1016.36 1016.77 1015.47 1015.12 1014.94 1014.72 1014.52 1014.52 1013.65 1013.13 1013.16 1012.86 1012.13 1011.51 1011.23 1011.01 1010.58 1010.44 1010.40 1010.51 1010.20 1009.60 1008.77 1007.42 1006.54 1005.93 1005.30
1024.73 1024.28 1023.83 1023.26 1022.78 1022.27 1021.70 1021.11 1020.35 1019.65 1019.00 1018.33 1017.65 1017.06 1016.48 1016.14 1015.86 1015.60 1015.79 1016.62 1016.71 1016.54 1015.30 1015.06 1014.97 1014.82 1014.64 1014.45 1013.84 1013.49 1013.51 1013.00 1012.26 1011.79 1011.54 1011.28 1010.39 1010.41 1010.53 1010.17 1009.68 1009.02 1008.18 1007.18 1006.42 1005.50 1004.88
1024.86 1024.36 1023.87 1023.37 1022.85 1022.33 1021.67 1021.03 1020.29 1019.61 1018.92 1018.16 1017.46 1016.90 1016.42 1015.76 1015.98 1015.84 1016.10 1016.86 1016.71 1016.48 1015.22 1015.03 1014.80 1014.82 1014.51 1013.85 1013.83 1013.88 1013.78 1013.65 1012.95 1012.09 1011.74 1010.93 1010.23 1010.12 1009.87 1009.55 1009.16 1007.98 1007.31 1006.89 1006.50 1005.84 1004.35
1024.91 1024.44 1024.03 1023.54 1022.94 1022.36 1021.65 1020.91 1020.26 1019.55 1018.84 1018.15 1017.57 1016.99 1016.63 1016.10 1016.19 1016.04 1017.13 1017.07 1016.90 1016.49 1015.27 1014.68 1014.57 1014.76 1014.42 1014.65 1014.57 1013.67 1013.96 1013.59 1013.17 1012.68 1012.70 1010.83 1009.81 1009.65 1009.69 1009.46 1009.39 1008.07 1007.49 1006.71 1006.26 1005.61 1004.53
1024.94 1024.49 1024.01 1023.48 1022.95 1022.36 1021.69 1020.95 1020.24 1019.51 1018.75 1018.12 1017.60 1017.15 1016.68 1016.47 1016.01 1017.14 1017.14 1016.97 1016.72 1015.72 1014.64 1014.45 1014.49 1014.53 1014.45 1014.20 1014.33 1014.29 1013.89 1013.77 1012.80 1012.53 1011.54 1010.53 1009.31 1009.88 1009.95 1009.94 1009.07 1008.58 1007.57 1006.43 1005.94 1005.60 1003.94
1024.91 1024.45 1023.94 1023.41 1022.92 1022.32 1021.56 1020.84 1020.08 1019.34 1018.65 1017.95 1017.49 1017.31 1016.80 1016.64 1016.74 1016.91 1017.01 1016.57 1015.66 1014.81 1014.92 1014.87 1015.10 1015.01 1014.89 1014.41 1014.27 1014.34 1014.03 1013.87 1014.03 1013.13 1011.61 1010.15 1009.12 1009.84 1010.17 1009.99 1008.92 1009.17 1008.53 1006.05 1005.15 1004.40 1001.98
1024.78 1024.35 1023.85 1023.32 1022.81 1022.20 1021.54 1020.83 1020.09 1019.30 1018.61 1017.97 1017.25 1017.11 1016.94 1016.52 1016.76 1016.91 1016.67 1015.56 1015.24 1015.99 1016.20 1016.30 1016.17 1015.74 1015.29 1015.19 1014.78 1014.84 1014.43 1014.47 1014.95 1015.13 1013.55 1012.16 1010.05 1010.09 1011.08 1011.61 1011.40 1010.14 1009.75 1008.04 1005.80 1003.13 1001.92
1024.68 1024.24 1023.71 1023.20 1022.73 1022.16 1021.54 1020.74 1019.93 1019.17 1018.40 1017.78 1016.88 1016.35 1015.91 1016.23 1016.49 1016.67 1015.62 1015.34 1016.60 1017.14 1017.61 1017.56 1016.57 1015.89 1015.28 1015.37 1015.71 1015.24 1014.76 1015.26 1015.66 1015.84 1015.81 1013.83 1011.50 1010.83 1011.58 1012.06 1012.36 1011.40 1010.86 1010.57 1008.45 1004.86 1003.92
1024.49 1024.10 1023.68 1023.15 1022.67 1022.13 1021.45 1020.67 1019.91 1019.15 1018.32 1017.81 1016.94 1016.17 1015.90 1016.02 1015.81 1015.42 1015.03 1016.63 1017.20 1017.91 1018.38 1018.32 1017.48 1016.94 1016.41 1015.82 1016.03 1015.80 1015.28 1015.76 1015.88 1016.19 1016.38 1015.22 1013.07 1011.00 1011.14 1011.89 1012.69 1013.35 1013.19 1011.41 1009.09 1006.22 1004.48
1024.20 1023.83 1023.42 1023.00 1022.63 1022.17 1021.56 1020.79 1020.01 1019.27 1018.49 1017.82 1016.99 1015.98 1016.18 1015.85 1015.23 1015.07 1016.27 1017.62 1018.05 1018.20 1018.72 1018.69 1017.99 1017.65 1017.26 1016.92 1016.63 1016.13 1015.85 1015.51 1015.78 1016.14 1016.11 1015.15 1014.66 1012.36 1011.64 1012.81 1014.01 1013.86 1014.14 1014.13 1012.87 1009.63 1007.05
1023.95 1023.50 1023.10 1022.72 1022.34 1021.91 1021.42 1020.84 1020.24 1019.52 1018.80 1017.56 1017.25 1016.26 1016.54 1015.83 1015.16 1016.07 1017.33 1018.42 1018.82 1018.39 1018.73 1018.84 1018.54 1018.13 1017.68 1017.51 1016.99 1016.62 1015.96 1015.77 1016.00 1016.39 1015.86 1015.17 1014.89 1013.40 1012.85 1014.07 1014.92 1015.34 1015.95 1015.85 1014.79 1011.75 1010.98
1023.74 1023.28 1022.90 1022.47 1022.12 1021.74 1021.27 1020.76 1020.25 1019.64 1019.24 1018.60 1017.96 1017.07 1016.66 1016.30 1016.21 1016.87 1017.71 1018.32 1018.65 1018.58 1018.59 1018.77 1018.34 1018.11 1018.01 1018.09 1017.80 1016.65 1016.31 1016.08 1016.41 1016.57 1016.26 1016.08 1014.91 1013.98 1012.98 1014.55 1014.95 1015.69 1016.74 1016.99 1015.80 1014.85 1013.62
1023.49 1023.07 1022.68 1022.30 1021.94 1021.61 1021.19 1020.73 1020.27 1019.77 1019.44 1019.16 1018.59 1017.64 1016.68 1017.13 1017.83 1018.01 1018.38 1018.16 1018.32 1018.35 1018.39 1018.51 1018.26 1018.26 1018.23 1017.70 1017.43 1016.66 1016.27 1016.42 1016.45 1016.37 1016.63 1016.91 1016.13 1015.80 1015.28 1015.24 1016.07 1016.73 1017.52 1017.84 1017.05 1016.02 1016.11
1023.19 1022.76 1022.42 1022.06 1021.79 1021.42 1021.01 1020.67 1020.27 1019.80 1019.52 1019.29 1019.43 1019.35 1019.90 1018.08 1017.73 1018.23 1018.91 1018.43 1018.18 1018.22 1018.44 1018.36 1018.00 1018.03 1018.01 1017.65 1017.06 1016.29 1016.00 1015.95 1015.75 1016.02 1016.75 1017.08 1016.33 1015.70 1015.59 1015.62 1016.53 1017.49 1018.36 1018.87 1018.91 1018.99 1018.41
1022.63 1022.26 1021.95 1021.67 1021.43 1021.10 1020.75 1020.41 1020.12 1019.74 1019.51 1019.14 1019.86 1020.22 1020.50 1019.49 1018.85 1018.35 1018.22 1017.82 1017.82 1017.90 1018.36 1017.54 1017.65 1017.26 1017.40 1017.27 1017.05 1016.18 1016.05 1015.82 1015.96 1016.14 1016.71 1017.19 1016.41 1016.22 1015.51 1015.67 1016.55 1017.41 1018.87 1019.67 1020.35 1020.53 1020.04
1022.17 1021.84 1021.51 1021.18 1020.94 1020.68 1020.38 1020.05 1019.87 1019.57 1019.48 1019.41 1019.98 1020.30 1020.20 1019.18 1018.39 1018.17 1017.18 1017.13 1017.39 1017.56 1016.98 1016.93 1016.90 1016.81 1016.63 1016.31 1015.97 1015.43 1015.38 1015.35 1015.76 1016.27 1016.82 1017.10 1016.95 1016.45 1015.41 1016.02 1016.72 1017.50 1019.64 1020.57 1021.45 1022.05 1022.03
1021.50 1021.19 1020.91 1020.62 1020.33 1020.09 1019.87 1019.67 1019.45 1019.26 1019.02 1018.84 1019.31 1019.64 1020.05 1018.74 1018.07 1017.31 1016.84 1017.11 1016.95 1016.89 1016.62 1016.28 1016.28 1016.17 1015.71 1015.85 1015.73 1014.75 1014.06 1014.91 1015.76 1016.08 1016.72 1016.72 1017.16 1016.64 1015.96 1016.26 1017.29 1019.10 1020.30 1021.22 1021.85 1022.62 1022.82
1020.75 1020.51 1020.21 1019.85 1019.61 1019.39 1019.21 1019.04 1018.84 1018.63 1018.44 1018.47 1018.82 1019.16 1019.29 1018.17 1017.12 1016.42 1016.29 1016.34 1016.28 1016.19 1016.10 1015.96 1015.89 1015.63 1015.92 1016.16 1015.26 1013.97 1013.22 1014.43 1014.83 1015.51 1016.67 1017.06 1017.15 1016.38 1016.40 1016.44 1017.65 1019.15 1020.62 1021.83 1022.41 1022.86 1023.23
1019.94 1019.67 1019.48 1019.21 1018.91 1018.64 1018.38 1018.21 1018.06 1017.88 1017.68 1017.79 1017.86 1018.12 1018.49 1018.06 1016.06 1015.80 1015.99 1016.04 1015.86 1015.66 1015.64 1015.54 1015.77 1015.90 1016.34 1015.89 1015.32 1014.63 1013.37 1013.83 1014.38 1015.20 1016.38 1017.27 1017.50 1017.40 1016.61 1017.02 1017.69 1019.80 1021.53 1022.52 1022.93 1023.16 1023.65
1019.06 1018.81 1018.62 1018.40 1018.11 1017.84 1017.57 1017.33 1017.07 1016.93 1016.83 1016.88 1016.84 1017.15 1017.59 1017.20 1015.69 1015.65 1015.68 1015.78 1016.14 1016.00 1015.77 1015.47 1015.44 1015.83 1016.20 1015.45 1014.92 1014.19 1013.73 1014.31 1014.75 1015.32 1016.02 1016.79 1017.17 1016.85 1016.66 1017.11 1018.64 1021.02 1021.94 1022.77 1023.46 1024.46 1024.00
1018.01 1017.73 1017.44 1017.24 1017.12 1016.92 1016.61 1016.28 1016.01 1015.81 1015.79 1015.92 1015.80 1016.16 1016.63 1016.26 1015.13 1015.16 1015.44 1015.49 1015.81 1015.78 1015.64 1015.32 1015.80 1015.98 1015.86 1015.56 1014.82 1014.12 1013.98 1014.16 1015.12 1015.33 1016.27 1017.27 1017.40 1017.18 1017.91 1018.90 1020.09 1021.78 1022.31 1023.12 1024.10 1023.90 1023.89
1016.62 1016.47 1016.27 1015.99 1015.57 1015.55 1015.45 1015.20 1014.91 1014.62 1014.66 1014.81 1015.26 1015.32 1015.71 1015.86 1015.15 1015.26 1015.08 1015.22 1015.29 1015.22 1015.68 1015.53 1015.16 1015.31 1015.07 1015.19 1015.17 1015.14 1014.87 1014.93 1015.68 1016.31 1018.06 1018.85 1019.32 1019.65 1020.15 1020.60 1021.94 1022.80 1023.32 1023.84 1024.16 1024.17 1023.95
Wind_Speed
18 20 20 19 20 20 20 20 19 21 22 23 23 21 21 19 17 16 14 12 11 10 9 9 4 2 5 5 1 6 2 5 8 9 15 17 18 19 21 16 17 20 21 23 22 23 24
18 17 17 17 17 18 19 19 20 22 22 23 23 22 20 18 17 16 15 12 11 10 10 3 2 7 4 5 3 1 3 9 13 16 16 14 17 19 24 25 24 23 24 24 21 23 23
18 18 19 20 19 17 19 19 20 22 23 25 23 21 19 17 17 17 16 14 13 11 2 1 7 6 4 4 4 5 8 15 17 15 15 16 15 15 16 21 18 22 25 23 24 21 24
18 20 20 21 21 20 20 19 20 22 25 25 24 21 19 18 18 18 15 17 8 2 1 4 8 3 4 3 8 9 18 16 11 10 16 17 17 19 21 20 25 26 25 22 21 21 22
19 20 20 20 20 21 20 21 23 24 25 25 24 21 20 20 18 17 15 9 4 3 6 8 6 4 2 3 9 16 14 10 16 17 13 12 14 15 18 16 18 18 19 25 28 24 24
19 19 19 19 20 22 23 23 24 24 25 26 24 21 21 19 18 13 14 4 3 7 5 4 2 6 2 11 17 15 8 13 19 12 13 5 5 10 12 11 15 19 17 21 24 24 21
19 19 19 20 21 21 22 23 24 25 26 26 24 22 21 19 11 13 8 4 5 5 5 6 5 4 6 13 16 5 12 16 7 14 13 8 8 13 17 17 20 22 23 26 26 25 23
19 19 19 20 21 21 22 23 24 25 26 26 24 22 21 18 6 11 5 5 5 4 2 1 4 4 7 11 11 9 12 13 17 16 14 11 14 14 10 15 18 20 22 23 25 24 22
18 18 20 20 21 22 22 23 24 25 26 26 23 20 20 16 4 4 8 8 5 4 4 2 1 5 8 14 8 14 15 16 14 12 15 17 16 11 12 18 20 19 21 21 23 20 19
18 18 19 20 21 21 22 23 24 25 24 23 23 17 17 18 5 5 4 8 1 3 5 5 2 3 9 16 3 10 16 11 10 11 18 9 5 18 17 18 18 16 17 19 19 19 13
17 18 19 19 19 20 22 23 24 25 24 24 23 14 12 13 4 4 6 4 2 4 3 7 2 2 14 6 11 3 13 8 11 16 12 10 22 14 14 13 18 22 20 16 15 16 18
17 18 18 19 20 20 21 23 24 23 24 24 23 11 11 1 2 3 3 2 4 5 3 3 3 11 17 5 10 7 9 9 9 18 11 22 10 5 13 17 24 13 15 21 18 10 12
17 17 18 18 18 19 20 23 23 24 23 24 23 7 6 3 6 5 4 4 5 4 3 7 9 13 15 12 8 11 12 12 13 14 20 18 5 1 6 20 16 18 15 5 6 8 11
17 17 17 17 18 19 21 22 23 24 23 23 21 5 1 7 5 4 4 5 3 2 5 8 10 16 6 10 6 12 11 8 10 13 17 13 8 13 11 7 13 16 8 9 9 4 10
17 17 17 17 17 18 21 23 23 24 23 23 17 3 2 8 3 3 6 4 4 5 5 10 17 7 4 3 7 9 10 4 6 12 11 10 9 25 6 3 13 12 12 19 10 15 12
16 16 17 17 17 18 19 22 23 24 24 23 5 3 4 11 4 6 3 2 2 1 7 8 6 2 6 11 9 12 6 3 6 11 8 6 12 10 17 2 7 4 8 8 4 7 7
16 16 16 17 17 19 19 21 22 23 23 18 4 4 6 11 6 5 4 3 4 5 5 5 5 7 6 9 11 8 5 7 5 10 14 11 6 14 17 5 7 9 8 5 8 7 7
16 16 16 16 16 17 18 20 22 22 22 5 4 3 6 10 3 3 3 3 3 5 5 6 7 11 9 9 9 7 7 6 13 14 10 5 6 12 13 7 5 5 11 6 5 8 9
17 16 16 14 14 15 17 18 19 20 17 6 4 4 2 6 4 5 4 4 5 4 4 3 6 7 5 6 7 9 7 5 11 15 5 9 4 10 7 5 5 5 13 13 11 7 4
18 16 16 14 15 15 15 16 17 16 13 5 4 5 2 2 2 2 4 4 4 4 9 7 10 10 9 10 11 9 10 8 6 13 10 4 6 9 10 15 4 5 12 14 10 4 11
18 17 15 16 15 14 16 15 16 14 9 4 3 3 3 6 5 5 2 3 6 5 5 6 6 11 7 6 11 11 8 11 11 5 2 3 7 10 15 10 3 3 9 9 10 9 6
16 16 16 15 15 15 15 15 15 12 5 1 1 1 2 5 6 7 5 6 7 6 5 7 9 9 9 12 14 20 20 16 9 3 5 1 5 8 5 4 9 8 8 5 6 8 5
17 17 17 16 15 15 15 15 15 12 2 1 1 2 1 5 4 4 7 4 5 7 8 11 11 12 15 17 15 15 17 17 15 15 13 4 4 5 6 3 6 10 4 3 3 4 5
17 17 17 15 15 15 16 16 15 13 7 2 3 2 3 5 7 8 6 8 12 13 16 17 13 15 7 7 16 19 18 5 6 9 9 5 4 4 7 4 11 4 3 2 1 2 4
20 18 19 18 16 16 17 17 16 16 13 3 3 3 3 5 9 13 13 11 12 12 14 15 15 12 7 10 11 8 5 5 5 5 7 3 3 5 5 10 2 7 5 1 1 4 6
21 19 19 19 17 17 17 17 18 17 13 4 5 3 3 3 7 11 6 9 10 10 10 12 8 4 3 6 4 5 4 4 3 5 5 6 5 4 9 13 13 6 4 2 4 5 8
23 21 20 21 19 18 18 18 17 17 16 7 4 7 3 4 6 8 7 5 4 2 6 10 4 5 3 4 6 7 8 1 5 3 4 6 8 12 12 14 2 3 1 4 5 5 6
24 23 21 20 20 19 19 19 19 18 17 10 2 9 5 4 9 8 7 6 4 4 4 1 5 5 4 5 3 4 5 1 4 4 4 6 8 10 2 5 12 5 4 4 5 4 5
24 24 23 21 20 19 20 20 21 19 17 13 3 5 6 7 3 1 2 3 8 8 2 5 5 3 3 4 3 3 6 6 5 12 3 4 3 3 3 3 5 5 8 4 2 6 7
Wind_Direction
31 28 27 25 20 20 14 9 3 357 352 348 345 345 343 341 338 338 336 336 328 320 320 317 295 173 220 247 55 118 3 347 305 289 290 287 285 285 279 272 276 264 263 267 266 267 272
31 24 16 21 19 15 12 8 2 358 355 349 347 343 343 340 336 336 333 332 327 321 314 299 198 163 248 302 60 208 312 316 309 305 298 289 282 285 278 274 271 273 273 270 270 277 273
18 11 14 15 11 14 8 6 0 356 351 354 348 344 343 339 336 337 333 335 323 318 313 231 163 214 238 355 317 308 299 294 308 290 283 286 288 278 285 289 276 265 265 267 258 260 266
13 15 14 9 8 5 5 359 354 354 355 352 351 346 344 340 336 333 333 339 341 314 242 166 167 236 311 39 329 292 328 312 294 281 280 281 282 275 276 269 272 269 268 269 271 269 263
13 12 11 7 5 4 3 359 358 356 356 352 351 349 346 344 338 332 343 9 37 92 130 143 173 279 329 192 318 335 318 313 308 300 294 280 278 271 272 257 266 260 260 263 268 259 262
14 13 10 8 3 4 1 1 355 354 356 355 354 352 348 345 344 345 349 35 124 130 134 165 149 240 97 340 336 318 314 317 298 300 294 239 239 259 263 255 258 276 271 270 268 269 263
13 10 4 1 3 5 1 358 356 355 355 355 355 350 352 351 3 347 337 203 198 160 47 30 359 302 314 328 326 322 347 315 289 297 298 323 288 266 276 269 271 279 277 278 279 279 284
6 4 1 359 359 0 359 358 354 357 354 354 353 346 350 351 52 5 346 42 43 344 182 324 306 278 318 342 308 336 345 337 318 307 305 300 265 256 304 291 284 279 276 270 268 269 272
2 2 360 357 1 359 355 353 353 352 351 351 352 347 346 351 191 29 57 30 313 210 256 155 303 310 339 326 328 335 350 326 315 311 333 307 289 329 296 288 287 274 265 268 274 285 268
358 355 356 355 357 353 351 353 353 348 346 348 350 345 350 335 241 354 56 352 37 191 247 60 317 74 334 324 218 343 356 331 313 324 331 305 311 306 299 291 294 285 292 268 272 274 265
355 355 353 352 353 351 348 350 349 346 345 349 351 350 7 12 345 22 329 342 139 235 283 5 19 322 336 18 314 132 343 326 314 318 309 282 310 315 300 311 319 295 294 289 277 263 273
352 351 350 348 348 349 346 345 342 345 345 347 350 350 333 153 118 9 298 190 225 227 348 7 350 336 338 327 345 315 347 343 303 310 271 307 290 286 322 321 305 334 303 268 258 253 251
347 346 345 345 347 346 343 344 344 344 344 344 345 342 20 348 343 345 180 212 248 22 38 334 333 331 326 335 319 348 339 12 21 343 336 327 340 8 0 324 332 343 318 272 207 208 241
341 341 342 343 345 340 343 344 346 342 340 342 337 295 99 36 346 173 202 231 22 68 309 342 308 312 293 353 340 337 328 353 27 353 315 345 335 12 19 11 327 313 305 307 314 299 331
336 337 337 339 343 339 343 344 347 342 340 344 319 204 338 4 31 197 254 36 10 350 338 311 307 286 333 316 340 331 335 345 359 8 357 318 295 322 92 86 19 331 336 306 277 259 261
334 334 334 334 339 337 344 345 348 345 342 343 317 266 31 345 309 245 35 70 262 270 310 293 291 313 307 339 330 340 308 119 337 347 357 300 296 305 341 264 42 338 347 340 272 285 318
330 329 331 333 337 337 342 343 348 347 344 333 290 256 9 337 280 38 45 357 286 268 278 261 292 287 275 316 319 318 283 312 17 338 322 307 285 294 309 32 26 4 13 352 285 267 304
329 331 330 332 335 336 338 340 345 348 347 343 318 262 357 330 39 60 11 273 319 262 250 268 273 271 274 307 299 282 262 299 356 348 312 335 295 294 335 115 117 29 15 357 309 339 318
325 326 327 327 329 331 333 335 340 348 6 326 349 294 53 300 32 355 351 261 245 263 256 265 266 241 296 293 304 273 287 303 326 338 314 354 298 308 319 179 194 16 9 342 308 240 313
326 325 322 323 324 325 323 329 335 346 359 317 333 324 135 89 54 321 315 275 263 239 270 247 265 273 275 266 254 264 268 312 293 316 296 320 271 277 299 307 338 351 3 0 356 346 332
317 319 321 319 315 317 315 323 327 340 353 298 11 29 22 302 326 307 191 280 274 296 228 236 269 238 261 281 291 268 281 288 301 354 305 318 276 304 301 296 197 45 17 14 21 355 10
306 309 312 310 305 307 308 313 318 328 335 308 294 292 166 280 279 265 260 209 270 288 226 254 233 272 273 261 264 287 290 297 297 280 318 247 271 339 272 243 243 233 47 35 18 355 340
303 304 304 299 298 299 297 302 309 312 193 180 152 96 170 251 239 259 263 263 251 297 259 253 270 284 283 283 289 291 290 286 277 277 273 256 309 306 298 330 297 243 67 48 136 32 315
292 297 293 296 292 287 291 296 301 299 278 231 160 136 176 258 223 247 264 234 265 282 276 280 270 266 263 302 293 277 262 280 271 255 237 248 262 269 288 265 295 116 104 134 161 142 360
287 287 287 287 284 285 288 292 293 291 288 197 149 169 193 247 255 276 256 249 270 274 276 283 287 275 315 293 293 291 226 212 216 187 202 218 259 284 270 305 23 180 136 149 233 155 14
280 280 282 282 278 278 280 283 285 284 282 194 205 162 164 273 226 247 253 263 278 283 277 243 247 280 263 276 261 262 286 336 244 189 210 188 222 253 302 286 287 67 89 93 202 204 20
276 278 276 275 279 274 275 279 281 278 274 207 206 173 164 245 249 238 226 256 182 243 257 281 272 267 199 240 260 261 267 101 267 248 205 228 234 245 273 280 285 45 85 168 231 53 354
272 273 269 267 273 276 273 274 275 276 269 226 200 181 186 240 260 221 199 203 180 193 233 202 282 186 218 242 249 262 259 274 256 263 240 269 276 265 242 272 265 14 167 255 24 323 344
263 266 266 265 260 268 274 276 276 275 262 205 218 173 204 239 282 299 268 260 248 251 188 200 239 173 257 259 225 265 242 257 279 287 132 230 291 324 318 5 110 69 88 77 346 322 348